User: anonymous   Login
Location: Unspecified
(0.0000°N, 0.0000°E)
Time: 11:47:10
(UTC+00:00)
Language:

SNUSAT-1 - Orbit

View from above orbital plane
View from above orbital plane
View from above satellite
View from above satellite

Ground track
Ground track

The orbit data is extracted from the following two-line orbital elements,

1 42727U 98067MG  18168.95009325  .00019233  00000-0  16555-3 0  9992
2 42727  51.6348 354.2946 0006168 195.4640 164.6170 15.69315065 60602
Epoch (UTC): 17 June 2018 22:48:08
Eccentricity: 0.0006168
inclination: 51.6348°
perigee height: 357 km
apogee height: 365 km
right ascension of ascending node: 354.2946°
argument of perigee: 195.4640°
revolutions per day: 15.69315065
mean anomaly at epoch: 164.6170°
orbit number at epoch: 6060

The dashed part of the orbit path shows where the satellite is in the earth's shadow,  

DLR